Tracking 19847 objects as of 15-Sep-2019
HD Live streaming from Space Station
objects crossing your sky now

KIKU 2 (ETS 2)

Track KIKU 2 (ETS 2) now!
KIKU 2 (ETS 2) is classified as:


NORAD ID: 9852
Int'l Code: 1977-014A
Perigee: 35,863.9 km
Apogee: 35,877.7 km
Inclination: 11.1 °
Period: 1,440.0 minutes
Semi major axis: 42241 km
RCS: 1.9952 m2 (large)
Launch date: February 23, 1977
Source: Japan (JPN)
Launch site: TANEGASHIMA SPACE CENTER (TNSTA)
aabbcc
Your satellite tracking list
Your tracking list is empty




NASA's NSSDC Master Catalog

Two Line Element Set (TLE):
1  9852U 77014A   19257.46705793 -.00000136  00000-0  00000+0 0  9998
2  9852  11.0973 311.8720 0001636 332.8411 141.9088  0.99997565102527
Source of the keplerian elements: AFSPC